Location: Caltech
(34.1382°N, 118.1253°W)
Time: 19:17:48
(UTC-08:00)

A-11 Canister half - All Passes

Search period start: 20 December 2014 00:00
Search period end: 30 December 2014 00:00
Orbit: 1518 x 1682 km, 47.2° (Epoch: 20 December)

Date Brightness Start Highest point End Pass type
(mag) Time Alt. Az. Time Alt. Az. Time Alt. Az.
20 Dec - 01:29:21 10° WSW 01:38:55 82° NW 01:48:54 10° NE visible
20 Dec - 03:35:59 10° W 03:45:05 42° NNW 03:54:29 10° ENE visible
20 Dec - 05:43:01 10° NW 05:52:20 42° NNE 06:01:49 10° E visible
20 Dec - 07:48:26 10° NW 07:58:35 82° NE 08:08:46 10° ESE daylight
20 Dec - 09:54:24 10° WNW 10:02:59 33° SW 10:11:32 10° S daylight
20 Dec - 23:04:17 10° S 23:11:54 29° SE 23:19:42 10° ENE night (unlit)
21 Dec - 01:06:28 10° SW 01:16:01 86° NW 01:25:57 10° NE visible
21 Dec - 03:12:58 10° W 03:22:05 43° NNW 03:31:29 10° NE visible
21 Dec - 05:20:03 10° WNW 05:29:19 41° NNE 05:38:45 10° E visible
21 Dec - 07:25:31 10° NW 07:35:39 79° NE 07:45:49 10° ESE daylight
21 Dec - 09:31:21 10° WNW 09:40:08 35° SW 09:48:55 10° S daylight
21 Dec - 22:41:47 10° S 22:49:06 26° SE 22:56:35 10° ENE night (unlit)
22 Dec - 00:43:37 10° SW 00:53:07 90° SE 01:03:01 10° NE visible
22 Dec - 02:49:57 10° W 02:59:04 44° NNW 03:08:30 10° NE visible
22 Dec - 04:57:05 10° WNW 05:06:17 41° N 05:15:40 10° ENE visible
22 Dec - 07:02:37 10° NW 07:12:42 75° NNE 07:22:52 10° ESE daylight
22 Dec - 09:08:19 10° WNW 09:17:17 38° SW 09:26:17 10° SSE daylight
22 Dec - 22:19:19 10° S 22:26:18 24° SE 22:33:26 10° ENE night (unlit)
23 Dec - 00:20:46 10° SW 00:30:14 86° SE 00:40:05 10° NE visible
23 Dec - 02:26:56 10° W 02:36:04 45° NNW 02:45:31 10° NE visible
23 Dec - 04:34:08 10° WNW 04:43:15 40° N 04:52:35 10° ENE visible
23 Dec - 06:39:42 10° NW 06:49:45 72° NNE 06:59:54 10° ESE daylight
23 Dec - 08:45:17 10° WNW 08:54:26 41° SW 09:03:36 10° SSE daylight
23 Dec - 21:56:54 10° S 22:03:31 22° SE 22:10:15 10° E night (unlit)
23 Dec - 23:57:55 10° SW 00:07:21 81° SE 00:17:09 10° NE night (unlit)
24 Dec - 02:03:56 10° W 02:13:04 46° NNW 02:22:32 10° NE visible
24 Dec - 04:11:09 10° WNW 04:20:13 39° N 04:29:31 10° ENE visible
24 Dec - 06:16:48 10° NW 06:26:48 69° NNE 06:36:55 10° ESE visible
24 Dec - 08:22:17 10° WNW 08:31:35 44° SW 08:40:55 10° SSE daylight
24 Dec - 21:34:33 10° SSE 21:40:44 20° SE 21:47:01 10° E night (unlit)
24 Dec - 23:35:06 10° SW 23:44:28 77° SE 23:54:13 10° NE night (unlit)
25 Dec - 01:40:56 10° W 01:50:05 47° NNW 01:59:34 10° NE visible
25 Dec - 03:48:11 10° WNW 03:57:11 39° N 04:06:26 10° ENE visible
25 Dec - 05:53:54 10° NW 06:03:50 66° NNE 06:13:55 10° ESE visible
25 Dec - 07:59:18 10° WNW 08:08:43 47° SW 08:18:12 10° SSE daylight
25 Dec - 21:12:15 10° SSE 21:17:57 18° ESE 21:23:43 10° E night (unlit)
25 Dec - 23:12:17 10° SW 23:21:36 73° SE 23:31:16 10° ENE night (unlit)
26 Dec - 01:17:56 10° W 01:27:06 49° NNW 01:36:36 10° NE visible
26 Dec - 03:25:13 10° WNW 03:34:10 38° N 03:43:21 10° ENE visible
26 Dec - 05:31:00 10° NW 05:40:52 63° NNE 05:50:55 10° ESE visible
26 Dec - 07:36:19 10° WNW 07:45:51 50° SW 07:55:27 10° SSE daylight
26 Dec - 20:50:02 10° SSE 20:55:10 16° ESE 21:00:21 10° E night (unlit)
26 Dec - 22:49:30 10° SW 22:58:45 69° SE 23:08:20 10° ENE night (unlit)
27 Dec - 00:54:57 10° W 01:04:07 50° NNW 01:13:39 10° NE visible
27 Dec - 03:02:14 10° WNW 03:11:08 38° N 03:20:17 10° ENE visible
27 Dec - 05:08:06 10° NW 05:17:54 61° NNE 05:27:54 10° ESE visible
27 Dec - 07:13:22 10° WNW 07:22:59 53° SW 07:32:42 10° SSE daylight
27 Dec - 09:24:29 10° WSW 09:26:30 11° WSW 09:28:31 10° SW daylight
27 Dec - 20:27:56 10° SSE 20:32:23 14° ESE 20:36:53 10° E visible
27 Dec - 22:26:43 10° SW 22:35:54 65° SE 22:45:23 10° ENE night (unlit)
28 Dec - 00:31:58 10° W 00:41:09 52° NNW 00:50:42 10° NE visible
28 Dec - 02:39:15 10° WNW 02:48:06 38° N 02:57:13 10° ENE visible
28 Dec - 04:45:12 10° NW 04:54:56 58° NNE 05:04:53 10° ESE visible
28 Dec - 06:50:25 10° WNW 07:00:06 57° SW 07:09:55 10° SSE daylight
28 Dec - 09:00:11 10° W 09:03:42 12° WSW 09:07:13 10° SW daylight
28 Dec - 20:06:01 10° SE 20:09:37 13° ESE 20:13:14 10° E visible
28 Dec - 22:03:57 10° SSW 22:13:03 61° SE 22:22:26 10° ENE night (unlit)
29 Dec - 00:09:00 10° W 00:18:11 54° NNW 00:27:45 10° NE night (unlit)
29 Dec - 02:16:16 10° WNW 02:25:04 38° N 02:34:09 10° ENE visible
29 Dec - 04:22:18 10° NW 04:31:58 56° NNE 04:41:51 10° ESE visible
29 Dec - 06:27:28 10° WNW 06:37:13 60° SW 06:47:07 10° SSE visible
29 Dec - 08:36:25 10° W 08:40:53 14° WSW 08:45:23 10° SSW daylight
29 Dec - 19:44:28 10° SE 19:46:50 11° ESE 19:49:13 10° ESE visible
29 Dec - 21:41:13 10° SSW 21:50:12 57° SE 21:59:29 10° ENE visible
29 Dec - 23:46:01 10° WSW 23:55:14 56° NNW 00:00:00 32° NE night (unlit)
